Weather History for Annette Island, AK

Change the Weather History Date:

Tuesday, January 22, 2013

  Actual Average Record
Temperature  
Mean Temperature 41 °F 37 °F  
Max Temperature 48 °F 42 °F 53 °F (1981)
Min Temperature 34 °F 32 °F 5 °F (1969)
Degree Days  
Heating Degree Days 24 28  
Month to date heating degree days 561 616  
Since 1 July heating degree days 3604 3527  
Cooling Degree Days 0    
Month to date cooling degree days 0  
Year to date cooling degree days 0  
Moisture  
Dew Point 35 °F    
Average Humidity 0    
Maximum Humidity 0    
Minimum Humidity 0    
Precipitation  
Precipitation 0.67 in 0.35 in 2.66 in (1968)
Month to date precipitation 5.56 7.77  
Year to date precipitation 5.56 7.77  
Snow  
Snow 0.00 in 0.20 in 10.70 in (1993)
Month to date snowfall T 5.5  
Since 1 July snowfall 11.4 17.2  
Snow Depth 0.00 in    
Sea Level Pressure  
Sea Level Pressure 29.76 in    
Wind  
Wind Speed 11 mph (SE)    
Max Wind Speed 20 mph    
Max Gust Speed 29 mph    
Visibility 9 miles    
Events Rain    
T = Trace of Precipitation, MM = Missing Value Source: NWS Daily Summary

Daily Weather History Graph

Daily Weather History Graph

Search for Another Location

Airport:

Trip Planner

Search our weather history database for the weather conditions in past years. The results will help you decide how hot, cold, wet, or windy it might be!

Date:

Astronomy

Jan. 22, 2013 Rise Set
Actual Time 7:52 AM AKST 4:03 PM AKST
Civil Twilight 7:11 AM AKST 4:45 PM AKST
Nautical Twilight 6:26 AM AKST 5:30 PM AKST
Astronomical Twilight 5:43 AM AKST 6:13 PM AKST
Moon 12:23 PM AKST 4:28 AM AKST
Length of Visible Light 9h 34m
Length of Day
8h 11m
Waxing Gibbous, 84% of the Moon is Illuminated
Jan 22
Waxing Gibbous
Jan 26
Full
Feb 3
Last Quarter
Feb 9
New
Feb 17
First Quarter

Hourly Weather History & Observations

Time (AKST) Temp. Windchill Dew Point Humidity Pressure Visibility Wind Dir Wind Speed Gust Speed Precip Events Conditions
12:53 AM 35.1 °F - 34.0 °F 96% 29.88 in 10.0 mi Calm Calm - N/A   Clear
1:53 AM 35.1 °F - 33.1 °F 92% 29.87 in 10.0 mi Calm Calm - N/A   Clear
2:53 AM 44.1 °F 40.1 °F 28.9 °F 55% 29.85 in 10.0 mi SSE 6.9 mph - N/A   Scattered Clouds
3:53 AM 43.0 °F 40.3 °F 30.9 °F 62% 29.83 in 10.0 mi SE 4.6 mph - N/A   Clear
4:53 AM 41.0 °F 36.4 °F 33.1 °F 73% 29.81 in 10.0 mi SE 6.9 mph - N/A   Clear
5:53 AM 44.1 °F 40.8 °F 28.0 °F 53% 29.81 in 10.0 mi SE 5.8 mph - N/A   Scattered Clouds
6:53 AM 45.0 °F 38.5 °F 30.9 °F 58% 29.80 in 10.0 mi SE 13.8 mph 23.0 mph 0.00 in Rain Light Rain
7:53 AM 46.0 °F 40.2 °F 30.9 °F 56% 29.79 in 10.0 mi SE 12.7 mph 21.9 mph 0.02 in   Overcast
8:53 AM 46.0 °F 41.0 °F 30.9 °F 56% 29.79 in 10.0 mi SE 10.4 mph - N/A   Overcast
9:53 AM 48.0 °F - 28.0 °F 46% 29.78 in 10.0 mi SE 10.4 mph - N/A   Overcast
10:53 AM 46.9 °F - 30.0 °F 52% 29.78 in 10.0 mi SE 13.8 mph 18.4 mph N/A   Overcast
11:53 AM 46.9 °F - 30.0 °F 52% 29.77 in 10.0 mi SE 15.0 mph - 0.00 in   Overcast
12:53 PM 45.0 °F 38.2 °F 34.0 °F 65% 29.76 in 10.0 mi ESE 15.0 mph - 0.00 in Rain Light Rain
1:53 PM 45.0 °F 40.1 °F 36.0 °F 71% 29.74 in 10.0 mi SE 9.2 mph - 0.00 in Rain Light Rain
2:53 PM 44.1 °F 37.7 °F 37.9 °F 79% 29.74 in 10.0 mi SE 12.7 mph 21.9 mph 0.02 in Rain Light Rain
3:05 PM 44.6 °F 38.4 °F 37.4 °F 76% 29.74 in 8.0 mi SE 12.7 mph - 0.01 in Rain Light Rain
3:53 PM 43.0 °F 36.4 °F 39.0 °F 86% 29.74 in 6.0 mi SE 12.7 mph 20.7 mph 0.07 in Rain Light Rain
4:53 PM 42.1 °F 34.9 °F 39.9 °F 92% 29.73 in 9.0 mi SE 13.8 mph - 0.07 in Rain Light Rain
5:53 PM 43.0 °F 36.8 °F 39.0 °F 86% 29.71 in 8.0 mi ESE 11.5 mph 20.7 mph 0.08 in Rain Light Rain
6:53 PM 43.0 °F 35.4 °F 39.0 °F 86% 29.69 in 7.0 mi ESE 16.1 mph 23.0 mph 0.08 in Rain Light Rain
7:53 PM 43.0 °F 35.4 °F 39.0 °F 86% 29.68 in 8.0 mi ESE 16.1 mph 23.0 mph 0.05 in Rain Light Rain
8:53 PM 42.1 °F 34.9 °F 37.9 °F 85% 29.68 in 7.0 mi ESE 13.8 mph 24.2 mph 0.08 in Rain Rain
9:53 PM 41.0 °F 33.9 °F 37.9 °F 89% 29.68 in 7.0 mi ESE 12.7 mph 20.7 mph 0.08 in Rain Light Rain
10:51 PM 42.8 °F 37.0 °F 39.2 °F 87% 29.67 in 7.0 mi ESE 10.4 mph 20.7 mph 0.06 in Rain Light Rain
10:53 PM 42.1 °F 34.5 °F 39.0 °F 89% 29.68 in 7.0 mi ESE 15.0 mph 24.2 mph 0.06 in Rain Light Rain
11:53 PM 42.1 °F 35.2 °F 39.0 °F 89% 29.68 in 7.0 mi SE 12.7 mph 20.7 mph 0.06 in Rain Rain